TimeEDT,TemperatureF,Dew PointF,Humidity,Sea Level PressureIn,VisibilityMPH,Wind Direction,Wind SpeedMPH,Gust SpeedMPH,PrecipitationIn,Events,Conditions,WindDirDegrees,DateUTC
12:52 AM,75.0,70.0,84,30.05,10.0,South,5.8,-,0.00,Rain,Light Rain,170,2013-08-08 04:52:00
1:52 AM,73.9,70.0,87,30.04,10.0,SSE,8.1,-,0.00,,Overcast,160,2013-08-08 05:52:00
2:52 AM,73.9,70.0,87,30.04,10.0,South,4.6,-,N/A,,Overcast,180,2013-08-08 06:52:00
3:52 AM,73.0,70.0,90,30.04,10.0,SSE,5.8,-,N/A,,Overcast,160,2013-08-08 07:52:00
4:52 AM,73.0,71.1,93,30.04,10.0,South,4.6,-,N/A,,Overcast,170,2013-08-08 08:52:00
5:52 AM,73.0,71.1,93,30.04,10.0,South,4.6,-,N/A,,Overcast,170,2013-08-08 09:52:00
6:52 AM,73.0,71.1,93,30.04,10.0,SSE,6.9,-,N/A,,Overcast,160,2013-08-08 10:52:00
7:52 AM,73.9,71.1,91,30.04,10.0,SSE,4.6,-,N/A,,Overcast,160,2013-08-08 11:52:00
8:52 AM,75.0,72.0,90,30.06,10.0,South,5.8,-,N/A,,Overcast,170,2013-08-08 12:52:00
9:52 AM,75.9,72.0,87,30.06,10.0,South,5.8,-,N/A,,Overcast,180,2013-08-08 13:52:00
10:52 AM,78.1,72.0,81,30.07,10.0,South,6.9,-,N/A,,Overcast,180,2013-08-08 14:52:00
11:52 AM,80.1,73.0,79,30.07,10.0,SW,4.6,-,N/A,,Overcast,220,2013-08-08 15:52:00
12:52 PM,82.0,72.0,71,30.07,10.0,South,10.4,-,N/A,,Mostly Cloudy,180,2013-08-08 16:52:00
1:52 PM,84.0,72.0,67,30.05,10.0,SSW,9.2,-,N/A,,Mostly Cloudy,210,2013-08-08 17:52:00
2:52 PM,82.9,72.0,69,30.04,10.0,South,8.1,-,N/A,,Mostly Cloudy,190,2013-08-08 18:52:00
3:52 PM,82.9,70.0,65,30.03,10.0,SSW,6.9,-,N/A,,Mostly Cloudy,210,2013-08-08 19:52:00
4:52 PM,86.0,71.1,61,30.01,10.0,SW,8.1,-,N/A,,Mostly Cloudy,230,2013-08-08 20:52:00
5:52 PM,84.9,71.1,63,30.01,10.0,SW,6.9,-,N/A,,Mostly Cloudy,220,2013-08-08 21:52:00
6:52 PM,84.0,71.1,65,30.02,10.0,SW,5.8,-,N/A,,Mostly Cloudy,230,2013-08-08 22:52:00
7:52 PM,81.0,73.0,77,30.03,10.0,WSW,3.5,-,N/A,,Mostly Cloudy,240,2013-08-08 23:52:00
8:52 PM,79.0,71.1,77,30.02,10.0,SSW,4.6,-,N/A,,Mostly Cloudy,200,2013-08-09 00:52:00
9:52 PM,78.1,71.1,79,30.04,10.0,South,3.5,-,N/A,,Scattered Clouds,180,2013-08-09 01:52:00
10:52 PM,77.0,72.0,84,30.04,10.0,SSW,3.5,-,N/A,,Scattered Clouds,210,2013-08-09 02:52:00
11:52 PM,75.9,72.0,87,30.02,10.0,SSW,4.6,-,N/A,,Scattered Clouds,200,2013-08-09 03:52:00